[[{"header":{"parameterUnit":"m.s-1","parameterCategory":2,"la1":30.2991,"la2":30.254,"lo1":-89.0895,"lo2":-89.0444,"dy":0.0017,"dx":0.0017,"nx":28,"ny":28,"refTime":"2024-06-08T21:00:00:Z","depth":"0","parameterNumber":2,"parameterNumberName":"U-component_of_CURRENTS"},"data":[0,0,0,0,0,0,0,0,0,0,0,0,0,0,0,0,0,0,0,0,0,0,0,0,0,0,0,0,0,0,0,0,0,0,0,0,0,0,0,0,0,0,0,0,0,0,0,0,0,0,0,0,0,0,0,0,0,0,0.3602,0.3603,0,0.3662,0.3663,0.3664,0.3641,0.3639,0.3638,0.3637,0.3733,0.3736,0.374,0,0,0,0,0,0,0,0,0,0,0,0,0,0.3534,0.3535,0.3602,0.3603,0.3604,0.3662,0.3663,0.3664,0.3641,0.3639,0.3638,0.3636,0.3732,0.3736,0.3741,0,0,0,0,0,0,0,0,0,0,0,0,0,0.3575,0.3535,0.3602,0.36,0.36,0.3662,0.3663,0.3664,0.3641,0.3639,0.3637,0.3635,0.373,0.3736,0.3741,0.3816,0,0,0.3759,0.3761,0,0,0,0,0,0,0,0,0.3572,0.3577,0.3599,0.36,0.3601,0.3643,0.3674,0.3717,0.3642,0.3625,0.3637,0.3634,0.3708,0.3715,0.3729,0.382,0.3825,0.3759,0.3762,0.3765,0.3767,0,0,0,0,0,0,0,0.357,0.3575,0.3625,0.3601,0.3601,0.3619,0.3622,0.3682,0.3677,0.3626,0.3625,0.3633,0.3708,0.3724,0.3732,0.3826,0.3759,0.3764,0.3767,0.377,0.4106,0.4111,0,0,0,0,0,0,0.3563,0.3572,0.3623,0.3627,0.3582,0.3621,0.3625,0.3631,0.3676,0.368,0.3635,0.3632,0.3715,0.3725,0.3735,0.3937,0.3765,0.377,0.3773,0.41,0.4107,0.4113,0,0,0,0,0,0,0.3561,0.3567,0.3621,0.3602,0.361,0.3624,0.3631,0.3633,0.366,0.3682,0.3687,0.3662,0.3714,0.3727,0.3826,0.3936,0.3773,0.3778,0.4094,0.4103,0.411,0.427,0,0,0,0,0,0,0.3559,0.3565,0.3577,0.3601,0.3611,0.3698,0.3634,0.3636,0.3668,0.3665,0.3707,0.3713,0.3714,0.3818,0.3832,0.3941,0.3782,0.4087,0.4098,0.4108,0.4258,0.4283,0.4304,0,0,0,0,0,0.3556,0.3593,0.3577,0.3584,0.3623,0.3701,0.371,0.3711,0.3671,0.372,0.3742,0.3712,0.3894,0.3827,0.3842,0.3955,0.4082,0.4095,0.4107,0.4248,0.4278,0.4304,0,0,0,0,0,0,0.357,0.3595,0.3578,0.3618,0.3669,0.3698,0.3743,0.373,0.3783,0.3778,0.3773,0.3785,0.3915,0.3919,0.3845,0.4087,0.3989,0.4005,0.4091,0.412,0.4143,0.4133,0.3787,0,0,0,0,0,0.3577,0.3616,0.3641,0.3683,0.3709,0.3725,0.3754,0.376,0.3802,0.382,0.3847,0.3898,0.3981,0.4031,0.4093,0.4223,0.4218,0.4312,0.4335,0.4354,0.4361,0.4452,0.4483,0.4154,0.4154,0.4154,0,0,0.3589,0.3615,0.3632,0.3691,0.3723,0.3801,0.374,0.381,0.3881,0.3828,0.3942,0.3975,0.4031,0.4177,0.4238,0.4193,0.4452,0.437,0.4386,0.4382,0.4468,0.45,0.4527,0.4162,0.4161,0.4159,0,0,0.3664,0.3666,0.3729,0.3784,0.385,0.3874,0.3899,0.3949,0.398,0.4092,0.408,0.4177,0.4289,0.4361,0.4409,0.4604,0.4563,0.4634,0.4756,0.4846,0.4872,0.4895,0.4943,0.4969,0.4656,0.4656,0.4656,0,0.3677,0.3748,0.3766,0.3854,0.3905,0.3913,0.4,0.4059,0.4136,0.4189,0.4155,0.4346,0.4387,0.457,0.4641,0.4658,0.4675,0.4638,0.4872,0.4895,0.4916,0.4958,0.4985,0.4665,0.4664,0.4663,0.4662,0,0.3803,0.3862,0.3918,0.402,0.4089,0.4173,0.4241,0.4319,0.4344,0.4394,0.4556,0.4611,0.4716,0.4773,0.4769,0.4964,0.4917,0.4877,0.4788,0.4958,0.4993,0.5018,0.4678,0.4675,0.4672,0.467,0,0,0.3821,0.3968,0.3986,0.4044,0.4174,0.4237,0.4387,0.4515,0.4595,0.4699,0.482,0.4983,0.4977,0.5031,0.5048,0.514,0.5312,0.5081,0.5082,0.5104,0.5488,0.5363,0.5376,0.5306,0.5311,0.5315,0.5455,0,0.3908,0.4062,0.413,0.4285,0.4362,0.4437,0.4564,0.4686,0.4772,0.49,0.4999,0.5114,0.5089,0.5133,0.5237,0.5282,0.5383,0.5276,0.534,0.5341,0.519,0.5403,0.5224,0.5325,0.5478,0.5482,0.5485,0,0.4002,0.409,0.4238,0.4383,0.4424,0.4523,0.4692,0.4806,0.4996,0.5068,0.5208,0.5253,0.543,0.5355,0.5548,0.5475,0.5506,0.5531,0.5536,0.5375,0.5263,0.5182,0.5362,0.5248,0.5522,0.5519,0.5516,0,0.3983,0.416,0.4265,0.4324,0.4501,0.4584,0.4675,0.4854,0.4948,0.5159,0.5238,0.5432,0.5507,0.5613,0.5668,0.5622,0.584,0.5775,0.5699,0.5688,0.5524,0.549,0.5576,0.5923,0.5923,0.5923,0.5922,0,0.4042,0.4129,0.4255,0.432,0.4436,0.4564,0.4701,0.4827,0.5005,0.5131,0.5292,0.5412,0.5572,0.5698,0.5744,0.5803,0.5908,0.5763,0.5743,0.5576,0.5546,0.5423,0.5355,0.5928,0.5927,0.5926,0.5925,0,0.4023,0.4116,0.4227,0.4385,0.443,0.4505,0.4673,0.4768,0.4943,0.511,0.5179,0.5428,0.5604,0.5733,0.5906,0.5868,0.5791,0.5937,0.5709,0.5659,0.5427,0.5373,0.5211,0.5056,0.5883,0.5882,0.588,0,0.4033,0.4088,0.422,0.4268,0.4341,0.4456,0.4532,0.4716,0.4811,0.5106,0.5177,0.5417,0.5572,0.5782,0.5812,0.5895,0.5742,0.5716,0.5599,0.5434,0.5364,0.5139,0.5005,0.546,0.5455,0.5451,0.5448,0,0.4042,0.4075,0.4156,0.4226,0.4301,0.4388,0.4505,0.4565,0.4789,0.4927,0.5131,0.5285,0.5513,0.5543,0.5644,0.5663,0.544,0.563,0.5551,0.5128,0.4803,0.4634,0.5323,0.5412,0.5416,0.5418,0.542,0.5422,0.4023,0.405,0.4128,0.4194,0.4253,0.431,0.4338,0.4464,0.4587,0.4758,0.4976,0.5116,0.5273,0.5408,0.5375,0.5214,0.5191,0.5086,0.5066,0.4877,0.4627,0.5211,0.5207,0.5209,0.5211,0.5213,0.5215,0,0.4005,0.4041,0.4094,0.415,0.4151,0.4224,0.4308,0.4301,0.4368,0.4563,0.4704,0.4827,0.4867,0.4934,0.4888,0.4712,0.4477,0.4593,0.4286,0.4206,0.4839,0.472,0.4498,0.4499,0.4499,0.4499,0.4499,0.4499,0.4002,0.4038,0.4058,0.4042,0.4055,0.4023,0.4037,0.4033,0.4115,0.4158,0.4206,0.4335,0.4548,0.4634,0.448,0.4363,0.4044,0.3848,0.383,0.4351,0.4395,0.4438,0.4315,0.4011,0.4011,0.3031,0.3024,0.3018]},{"header":{"parameterUnit":"m.s-1","parameterCategory":2,"la1":30.2991,"la2":30.254,"lo1":-89.0895,"lo2":-89.0444,"dy":0.0017,"dx":0.0017,"nx":28,"ny":28,"refTime":"2024-06-08T21:00:00:Z","depth":"0","parameterNumber":3,"parameterNumberName":"V-component_of_CURRENTS"},"data":[0,0,0,0,0,0,0,0,0,0,0,0,0,0,0,0,0,0,0,0,0,0,0,0,0,0,0,0,0,0,0,0,0,0,0,0,0,0,0,0,0,0,0,0,0,0,0,0,0,0,0,0,0,0,0,0,0,0,0.0126,0.0126,0,0.0063,0.0062,0.0061,0.0011,0.0011,0.0011,0.001,-0.0117,-0.012,-0.0123,0,0,0,0,0,0,0,0,0,0,0,0,0,0.0129,0.013,0.0126,0.0126,0.0125,0.0063,0.0062,0.0061,0.0011,0.0011,0.0011,0.001,-0.0116,-0.012,-0.0124,0,0,0,0,0,0,0,0,0,0,0,0,0,0.01,0.013,0.0126,0.0095,0.0092,0.0063,0.0062,0.006,0.0011,0.0011,0.0011,0.001,-0.0115,-0.012,-0.0124,-0.0148,0,0,-0.0139,-0.0141,0,0,0,0,0,0,0,0,0.0102,0.01,0.01,0.0097,0.0094,0.0047,0.0016,-0.0011,0.0011,0.0039,0.001,0.001,-0.0066,-0.0075,-0.0089,-0.0154,-0.0159,-0.0139,-0.0142,-0.0144,-0.0146,0,0,0,0,0,0,0,0.0104,0.0102,0.0098,0.01,0.0096,0.0059,0.0055,0.001,-0.0015,0.0036,0.0033,0.0031,-0.0069,-0.0085,-0.0093,-0.0161,-0.0139,-0.0144,-0.0146,-0.0148,-0.0277,-0.0277,0,0,0,0,0,0,0.0123,0.0105,0.01,0.0096,0.0101,0.006,0.0055,0.006,-0.0013,-0.0023,0.0031,0.0029,-0.0076,-0.0087,-0.0098,-0.0131,-0.0144,-0.0149,-0.0152,-0.0276,-0.0277,-0.0278,0,0,0,0,0,0,0.0123,0.0123,0.0103,0.0101,0.0096,0.0061,0.0066,0.0059,0.0049,-0.0015,-0.0027,0.003,-0.0077,-0.0091,-0.0135,-0.0137,-0.0151,-0.0155,-0.0276,-0.0277,-0.0277,-0.0198,0,0,0,0,0,0,0.0124,0.0124,0.013,0.0102,0.0097,0.0101,0.0067,0.0058,0.0049,0.0045,-0.0021,-0.0033,-0.0078,-0.0127,-0.0139,-0.0144,-0.0159,-0.0275,-0.0276,-0.0277,-0.02,-0.0196,-0.0193,0,0,0,0,0,0.0124,0.0145,0.0131,0.013,0.0109,0.0102,0.0096,0.0066,0.005,0.0054,0.0001,-0.0031,-0.0143,-0.0131,-0.0145,-0.0151,-0.0275,-0.0276,-0.0277,-0.0202,-0.0197,-0.0193,0,0,0,0,0,0,0.0151,0.0141,0.0126,0.0142,0.0128,0.0095,0.0096,0.0075,0.0038,0.003,-0.0034,-0.0049,-0.0091,-0.0133,-0.0119,-0.0194,-0.0216,-0.022,-0.0154,-0.015,-0.0146,-0.0093,-0.0163,0,0,0,0,0,0.0161,0.0172,0.0153,0.0164,0.0162,0.0128,0.012,0.0103,0.0069,0.0053,0.0007,-0.0052,-0.0109,-0.0136,-0.0187,-0.0222,-0.0233,-0.0239,-0.0235,-0.0232,-0.02,-0.0226,-0.0221,-0.0282,-0.0282,-0.0282,0,0,0.0176,0.017,0.0176,0.017,0.0154,0.0162,0.0123,0.0121,0.012,0.0043,0.0024,-0.0038,-0.0115,-0.0158,-0.0181,-0.0192,-0.0222,-0.0233,-0.0229,-0.0199,-0.0227,-0.022,-0.0215,-0.0282,-0.0282,-0.0282,0,0,0.0217,0.0205,0.023,0.0223,0.0211,0.019,0.0196,0.0169,0.0149,0.0123,0.0058,0.0008,-0.007,-0.0122,-0.0162,-0.0168,-0.02,-0.02,-0.0138,-0.0164,-0.0158,-0.0153,-0.0153,-0.0149,-0.0199,-0.0198,-0.0198,0,0.0231,0.0262,0.0236,0.0256,0.0259,0.0211,0.0239,0.021,0.017,0.0163,0.013,0.0025,-0.0048,-0.0097,-0.011,-0.0155,-0.0167,-0.0145,-0.0155,-0.015,-0.0146,-0.0148,-0.0144,-0.0195,-0.0195,-0.0196,-0.0196,0,0.0293,0.0311,0.0326,0.0335,0.0334,0.0348,0.0315,0.0306,0.0273,0.0244,0.02,0.0105,0.0051,0.0,-0.0061,-0.0081,-0.0097,-0.0143,-0.0154,-0.0134,-0.0139,-0.0136,-0.019,-0.0191,-0.0192,-0.0193,0,0,0.0339,0.0366,0.0369,0.04,0.0379,0.0397,0.0388,0.0382,0.0407,0.0331,0.0359,0.0222,0.0181,0.0133,0.0044,0.0008,0.0005,-0.0051,-0.0054,-0.0028,-0.0028,-0.003,-0.0028,-0.0044,-0.0044,-0.0043,-0.0039,0,0.0393,0.0462,0.045,0.0511,0.0549,0.0508,0.052,0.0503,0.0474,0.0487,0.0379,0.0366,0.0225,0.0215,0.0145,0.0057,0.0016,0.0011,-0.007,-0.0071,-0.0057,-0.0024,-0.0005,0.0001,-0.0037,-0.0036,-0.0036,0,0.0457,0.0499,0.0578,0.063,0.0643,0.0673,0.0706,0.0713,0.069,0.0672,0.0619,0.0549,0.0478,0.0369,0.022,0.0225,0.0108,0.0027,0.0024,0.0005,-0.0067,-0.003,0.0007,-0.0254,-0.0032,-0.0032,-0.0032,0,0.0529,0.0587,0.0662,0.0677,0.0725,0.0761,0.0785,0.078,0.0827,0.0816,0.087,0.0732,0.0737,0.0549,0.0355,0.0295,0.0226,0.0117,0.0004,0.0003,-0.0002,-0.0005,-0.0203,0.0022,0.0022,0.0022,0.0022,0,0.0597,0.0661,0.0716,0.0766,0.0878,0.087,0.0984,0.0981,0.1027,0.1138,0.099,0.1071,0.0787,0.07,0.0457,0.0271,0.0297,0.0046,0.001,0.0024,0.0024,-0.0221,-0.0356,0.0022,0.0022,0.0022,0.0022,0,0.0679,0.0701,0.0811,0.0889,0.0926,0.1017,0.1139,0.1224,0.1248,0.1399,0.1422,0.1362,0.1264,0.0974,0.0728,0.0462,0.0115,0.0166,0.0218,0.0186,-0.0204,-0.0332,-0.0509,-0.0621,0.0032,0.0032,0.0032,0,0.0733,0.0798,0.0923,0.1007,0.1058,0.1186,0.1285,0.1334,0.1445,0.1604,0.1707,0.1675,0.1701,0.1336,0.0863,0.0464,0.0187,0.0195,0.0054,-0.0193,-0.0364,-0.0466,-0.0557,0.0078,0.0078,0.0079,0.0079,0,0.0854,0.0896,0.0989,0.1151,0.1276,0.1426,0.1578,0.1703,0.1811,0.1973,0.2189,0.2244,0.1918,0.1537,0.0968,0.0667,0.0024,0.0188,-0.0089,-0.0345,-0.0445,-0.058,0.0052,0.0082,0.0082,0.0082,0.0081,0.0081,0.0954,0.1038,0.1153,0.1305,0.1455,0.1651,0.18,0.1994,0.2235,0.2512,0.2543,0.269,0.2108,0.135,0.0906,0.007,0.005,-0.0222,-0.0351,-0.0429,-0.0559,0.01,0.0091,0.0091,0.0091,0.0091,0.009,0,0.1068,0.1151,0.1299,0.1485,0.1658,0.1714,0.1983,0.2162,0.2484,0.277,0.2977,0.2783,0.2074,0.1309,0.0175,-0.04,-0.0614,-0.0701,-0.0874,-0.0941,-0.0371,-0.0395,-0.0482,-0.0482,-0.0482,-0.0481,-0.0481,-0.0481,0.1136,0.1276,0.1334,0.1614,0.1755,0.2004,0.2166,0.2463,0.2709,0.3079,0.3189,0.3207,0.2582,0.0666,-0.0657,-0.0946,-0.1327,-0.139,-0.1598,-0.126,-0.1227,-0.1196,-0.1254,-0.1519,-0.1521,-0.2115,-0.2121,-0.2125]}],[{"header":{"parameterUnit":"m.s-1","parameterCategory":2,"la1":30.2991,"la2":30.254,"lo1":-89.0895,"lo2":-89.0444,"dy":0.0017,"dx":0.0017,"nx":28,"ny":28,"refTime":"2024-06-08T21:00:00:Z","depth":"2","parameterNumber":2,"parameterNumberName":"U-component_of_CURRENTS"},"data":[0,0,0,0,0,0,0,0,0,0,0,0,0,0,0,0,0,0,0,0,0,0,0,0,0,0,0,0,0,0,0,0,0,0,0,0,0,0,0,0,0,0,0,0,0,0,0,0,0,0,0,0,0,0,0,0,0,0,0.3124,0.3125,0,0.3172,0.3172,0.3173,0.3172,0.3171,0.3171,0.317,0.3201,0.3203,0.3204,0,0,0,0,0,0,0,0,0,0,0,0,0,0.3054,0.3055,0.3124,0.3125,0.3126,0.3172,0.3172,0.3173,0.3172,0.3171,0.3171,0.317,0.3201,0.3203,0.3204,0,0,0,0,0,0,0,0,0,0,0,0,0,0.309,0.3056,0.3124,0.3132,0.3133,0.3172,0.3172,0.3173,0.3172,0.3171,0.317,0.317,0.3201,0.3202,0.3204,0.3231,0,0,0.321,0.3211,0,0,0,0,0,0,0,0,0.3088,0.3092,0.313,0.3132,0.3133,0.3167,0.3159,0.3192,0.3172,0.3155,0.317,0.3169,0.319,0.3193,0.3201,0.3232,0.3234,0.321,0.3212,0.3212,0.3213,0,0,0,0,0,0,0,0.3085,0.309,0.3141,0.3131,0.3133,0.3141,0.3145,0.3166,0.3175,0.3157,0.3157,0.3166,0.319,0.3199,0.3202,0.3234,0.321,0.3212,0.3213,0.3214,0.3365,0.3367,0,0,0,0,0,0,0.3083,0.3088,0.314,0.3143,0.311,0.3143,0.3147,0.3155,0.3175,0.3178,0.3166,0.3165,0.3196,0.32,0.3203,0.3319,0.3212,0.3214,0.3215,0.3362,0.3365,0.3368,0,0,0,0,0,0,0.3081,0.3087,0.3138,0.3118,0.3125,0.3145,0.3154,0.3157,0.3178,0.3182,0.3184,0.3186,0.3196,0.32,0.3229,0.3317,0.3215,0.3217,0.3358,0.3363,0.3367,0.3498,0,0,0,0,0,0,0.3079,0.3086,0.3097,0.3118,0.3126,0.3175,0.3155,0.3158,0.3184,0.3184,0.32,0.3202,0.3196,0.3226,0.3231,0.3318,0.3218,0.3355,0.336,0.3365,0.349,0.3506,0.352,0,0,0,0,0,0.3076,0.3093,0.3097,0.3104,0.3138,0.3176,0.3182,0.3192,0.3186,0.3206,0.3209,0.3202,0.3264,0.3229,0.3234,0.3324,0.3352,0.3359,0.3365,0.3483,0.3503,0.3519,0,0,0,0,0,0,0.3065,0.3095,0.31,0.3123,0.3155,0.3177,0.3197,0.3205,0.3224,0.3226,0.3219,0.3222,0.3289,0.3279,0.3239,0.3383,0.3316,0.3324,0.3404,0.3423,0.3437,0.3486,0.322,0,0,0,0,0,0.3069,0.3091,0.3121,0.3143,0.3159,0.3182,0.32,0.3213,0.3231,0.324,0.3252,0.3275,0.3321,0.3343,0.3368,0.3433,0.3446,0.35,0.3515,0.3528,0.3572,0.366,0.3688,0.3389,0.3389,0.3389,0,0,0.3069,0.3091,0.3101,0.3143,0.3165,0.3216,0.3191,0.3231,0.3286,0.3241,0.331,0.3322,0.3346,0.3425,0.3458,0.3428,0.3613,0.3536,0.3547,0.3584,0.367,0.37,0.3726,0.3394,0.3393,0.3392,0,0,0.3085,0.3103,0.3128,0.3172,0.322,0.3244,0.3261,0.33,0.3328,0.3384,0.3387,0.3447,0.3487,0.3546,0.3575,0.3688,0.3684,0.3701,0.3827,0.3913,0.3939,0.3962,0.3985,0.4009,0.3715,0.3715,0.3715,0,0.3084,0.3126,0.3143,0.3198,0.3245,0.3263,0.3322,0.3364,0.3411,0.3455,0.3419,0.3543,0.3559,0.3697,0.3752,0.3729,0.3753,0.3754,0.3935,0.3958,0.3979,0.3998,0.4023,0.3722,0.3721,0.3721,0.372,0,0.3129,0.3177,0.3202,0.328,0.3334,0.3387,0.3454,0.3495,0.3523,0.3582,0.3698,0.372,0.3794,0.3831,0.3835,0.4017,0.3974,0.3937,0.3891,0.4018,0.4028,0.4052,0.3732,0.373,0.3728,0.3726,0,0,0.3098,0.3206,0.3222,0.3273,0.3387,0.3428,0.3529,0.363,0.3708,0.3771,0.3888,0.3997,0.4016,0.4054,0.4072,0.418,0.4344,0.4149,0.415,0.4176,0.4509,0.4367,0.4378,0.4347,0.4352,0.4357,0.4443,0,0.313,0.3234,0.3289,0.3402,0.3468,0.3533,0.3629,0.3734,0.3814,0.393,0.4015,0.4139,0.41,0.416,0.4256,0.4318,0.442,0.4323,0.438,0.4381,0.4245,0.4407,0.4076,0.4118,0.4466,0.447,0.4473,0,0.3163,0.3236,0.3343,0.3472,0.3505,0.3576,0.3724,0.3816,0.3995,0.4066,0.4196,0.4269,0.4437,0.4387,0.455,0.4489,0.4535,0.4578,0.458,0.4431,0.4287,0.4055,0.4148,0.4512,0.4509,0.4506,0.4503,0,0.3148,0.3273,0.3353,0.3407,0.3556,0.3607,0.3688,0.3862,0.396,0.4184,0.4268,0.4445,0.453,0.4629,0.4676,0.4648,0.484,0.478,0.4696,0.4681,0.4406,0.4358,0.4952,0.4952,0.4951,0.4951,0.4951,0,0.3175,0.3242,0.3342,0.3402,0.3499,0.3611,0.3736,0.3847,0.4034,0.4168,0.4334,0.4445,0.4614,0.4713,0.4746,0.4766,0.4868,0.477,0.473,0.4434,0.4391,0.4732,0.4706,0.4954,0.4953,0.4953,0.4952,0,0.3156,0.3228,0.3315,0.345,0.3498,0.3568,0.3739,0.3823,0.4006,0.4176,0.4264,0.4496,0.462,0.4718,0.489,0.4828,0.4888,0.4878,0.4491,0.4406,0.4655,0.4635,0.481,0.4807,0.4804,0.4802,0.4799,0,0.3155,0.3201,0.3324,0.3365,0.3422,0.3535,0.3609,0.3803,0.3901,0.4169,0.4238,0.4463,0.4548,0.469,0.4714,0.4745,0.4844,0.4442,0.4353,0.4717,0.4659,0.4643,0.4627,0.4019,0.4011,0.4004,0.3998,0,0.3148,0.3175,0.3234,0.3321,0.3388,0.3464,0.3586,0.3634,0.3844,0.3983,0.413,0.4237,0.4407,0.4323,0.4398,0.4367,0.4404,0.4305,0.4828,0.4099,0.3976,0.3917,0.3926,0.3938,0.3944,0.3948,0.3952,0.3954,0.3107,0.3125,0.3184,0.3242,0.3309,0.3329,0.3328,0.3445,0.3546,0.3664,0.3874,0.3915,0.402,0.3975,0.3867,0.3816,0.4121,0.395,0.3969,0.3996,0.3883,0.3761,0.3658,0.3662,0.3666,0.3669,0.3672,0,0.3016,0.3055,0.3107,0.3139,0.3115,0.322,0.326,0.3201,0.3202,0.3389,0.3483,0.3269,0.3264,0.3356,0.3207,0.322,0.3173,0.3077,0.2994,0.3059,0.3116,0.2955,0.2486,0.2481,0.2477,0.2473,0,0,0.2977,0.2961,0.2971,0.291,0.293,0.2846,0.2808,0.2772,0.2835,0.2792,0.2841,0.3124,0.3279,0.284,0.2798,0.2613,0.2799,0.2509,0.3476,0.3445,0.3496,0.3653,0.3484,0,0,0,0,0]},{"header":{"parameterUnit":"m.s-1","parameterCategory":2,"la1":30.2991,"la2":30.254,"lo1":-89.0895,"lo2":-89.0444,"dy":0.0017,"dx":0.0017,"nx":28,"ny":28,"refTime":"2024-06-08T21:00:00:Z","depth":"2","parameterNumber":3,"parameterNumberName":"V-component_of_CURRENTS"},"data":[0,0,0,0,0,0,0,0,0,0,0,0,0,0,0,0,0,0,0,0,0,0,0,0,0,0,0,0,0,0,0,0,0,0,0,0,0,0,0,0,0,0,0,0,0,0,0,0,0,0,0,0,0,0,0,0,0,0,0.0047,0.0047,0,-0.0009,-0.0009,-0.001,-0.0055,-0.0056,-0.0056,-0.0056,-0.0166,-0.0169,-0.0172,0,0,0,0,0,0,0,0,0,0,0,0,0,0.0045,0.0046,0.0047,0.0047,0.0046,-0.0008,-0.0009,-0.0011,-0.0055,-0.0056,-0.0056,-0.0056,-0.0166,-0.0169,-0.0172,0,0,0,0,0,0,0,0,0,0,0,0,0,0.0021,0.0046,0.0047,0.0019,0.0016,-0.0008,-0.001,-0.0011,-0.0055,-0.0056,-0.0056,-0.0056,-0.0164,-0.0168,-0.0172,-0.0191,0,0,-0.0185,-0.0187,0,0,0,0,0,0,0,0,0.0023,0.0021,0.0024,0.0021,0.0018,-0.0023,-0.0051,-0.0073,-0.0055,-0.0031,-0.0056,-0.0057,-0.0122,-0.0129,-0.0142,-0.0196,-0.02,-0.0185,-0.0188,-0.019,-0.0191,0,0,0,0,0,0,0,0.0025,0.0023,0.0023,0.0023,0.002,-0.0014,-0.0018,-0.0055,-0.0077,-0.0033,-0.0036,-0.0038,-0.0124,-0.0138,-0.0145,-0.0202,-0.0185,-0.0189,-0.0191,-0.0193,-0.0277,-0.0277,0,0,0,0,0,0,0.0041,0.0025,0.0024,0.0021,0.0022,-0.0014,-0.0018,-0.0012,-0.0075,-0.0084,-0.0038,-0.004,-0.0131,-0.014,-0.0149,-0.0161,-0.0189,-0.0193,-0.0196,-0.0278,-0.0277,-0.0277,0,0,0,0,0,0,0.0041,0.0042,0.0027,0.0023,0.0019,-0.0012,-0.0006,-0.0013,-0.0022,-0.0077,-0.0088,-0.0039,-0.0131,-0.0143,-0.0174,-0.0167,-0.0195,-0.0199,-0.0278,-0.0277,-0.0277,-0.0195,0,0,0,0,0,0,0.0041,0.0042,0.0048,0.0025,0.002,0.0025,-0.0006,-0.0013,-0.0021,-0.0025,-0.0082,-0.0093,-0.0132,-0.0167,-0.0178,-0.0173,-0.0202,-0.0278,-0.0278,-0.0277,-0.0198,-0.0192,-0.0186,0,0,0,0,0,0.0042,0.0061,0.0049,0.0049,0.0031,0.0026,0.0021,-0.0006,-0.0021,-0.0017,-0.0057,-0.0091,-0.0173,-0.017,-0.0182,-0.0178,-0.0278,-0.0278,-0.0277,-0.02,-0.0193,-0.0186,0,0,0,0,0,0,0.0064,0.0058,0.0044,0.006,0.0048,0.002,0.0021,0.0002,-0.0027,-0.0031,-0.0087,-0.0101,-0.0125,-0.0163,-0.0159,-0.0203,-0.0232,-0.0234,-0.0169,-0.0162,-0.0157,-0.0118,-0.0205,0,0,0,0,0,0.0073,0.0084,0.0069,0.0079,0.0079,0.005,0.0043,0.0028,0.0002,-0.0011,-0.0051,-0.0096,-0.0134,-0.0155,-0.0194,-0.0216,-0.0244,-0.0223,-0.0217,-0.0212,-0.0189,-0.0225,-0.022,-0.0276,-0.0276,-0.0276,0,0,0.0085,0.0081,0.0087,0.0084,0.0072,0.0085,0.0045,0.0046,0.0053,-0.002,-0.0025,-0.0076,-0.0135,-0.0159,-0.0174,-0.0189,-0.0214,-0.0212,-0.0207,-0.0186,-0.0224,-0.0219,-0.0214,-0.0275,-0.0275,-0.0275,0,0,0.0123,0.0113,0.0139,0.0134,0.0126,0.0111,0.0117,0.0096,0.0083,0.0071,0.0017,-0.0021,-0.0077,-0.0116,-0.0144,-0.0131,-0.0181,-0.0152,-0.0093,-0.0129,-0.0124,-0.012,-0.0155,-0.0154,-0.0151,-0.0151,-0.015,0,0.0135,0.017,0.0144,0.0167,0.0176,0.0132,0.0166,0.0145,0.0114,0.0117,0.0083,0.0013,-0.0051,-0.0072,-0.0079,-0.0116,-0.0144,-0.0113,-0.0119,-0.0116,-0.0113,-0.015,-0.0151,-0.0147,-0.0147,-0.0147,-0.0148,0,0.0196,0.022,0.0236,0.0253,0.0255,0.0276,0.0253,0.0256,0.0233,0.0208,0.0189,0.0106,0.0072,0.0029,-0.0027,-0.0042,-0.0071,-0.0106,-0.013,-0.0102,-0.0143,-0.0146,-0.0141,-0.0142,-0.0143,-0.0144,0,0,0.0237,0.0275,0.028,0.0315,0.0307,0.0326,0.0342,0.0354,0.0383,0.0326,0.0355,0.0255,0.0211,0.0176,0.0098,0.0048,0.0014,-0.002,-0.0024,-0.0042,-0.0061,-0.0093,-0.0099,-0.0022,-0.0022,-0.0022,-0.0099,0,0.0296,0.0373,0.0367,0.0438,0.0483,0.0459,0.0486,0.0483,0.0463,0.0474,0.0388,0.0373,0.0266,0.025,0.0185,0.0062,0.0014,0.0039,-0.0096,-0.0099,-0.012,-0.01,-0.0063,-0.0129,-0.0102,-0.0102,-0.0103,0,0.0362,0.0411,0.0497,0.0565,0.0582,0.0611,0.0666,0.0684,0.067,0.0656,0.0621,0.0549,0.0472,0.0378,0.0209,0.023,0.0099,-0.0005,-0.0011,-0.0064,-0.0134,-0.0153,-0.0135,-0.0107,-0.0107,-0.0106,-0.0106,0,0.0429,0.0503,0.0584,0.0602,0.0662,0.0705,0.0738,0.0746,0.079,0.0776,0.0803,0.0694,0.0661,0.049,0.0265,0.0239,0.0077,0.0017,-0.0129,-0.0133,-0.0137,-0.0141,-0.009,-0.009,-0.0089,-0.0089,-0.0089,0,0.0502,0.0567,0.0628,0.0676,0.0789,0.0793,0.0898,0.0914,0.0949,0.1022,0.0906,0.0934,0.0686,0.0557,0.0333,0.0105,0.0133,-0.0103,-0.0148,-0.011,-0.011,-0.012,-0.0123,-0.0092,-0.0092,-0.0091,-0.009,0,0.0564,0.0598,0.0702,0.0788,0.0827,0.0908,0.1018,0.109,0.1108,0.1204,0.1212,0.112,0.0954,0.0692,0.0416,0.0214,-0.0018,-0.0109,-0.0048,-0.0085,-0.0223,-0.022,-0.0267,-0.0269,-0.027,-0.0271,-0.0272,0,0.0606,0.0666,0.0788,0.0861,0.0906,0.1023,0.111,0.1168,0.1253,0.1325,0.1384,0.1266,0.1189,0.0778,0.0405,0.0038,-0.002,-0.0166,-0.0215,-0.0198,-0.0238,-0.0234,-0.0229,-0.0196,-0.0196,-0.0196,-0.0196,0,0.0687,0.0721,0.0803,0.0952,0.1059,0.1195,0.1325,0.1417,0.1502,0.1587,0.1652,0.1596,0.1224,0.0858,0.0366,0.0118,-0.0108,-0.0182,-0.0166,-0.0156,-0.0137,-0.0174,-0.0171,-0.0198,-0.0198,-0.0198,-0.0198,-0.0197,0.0739,0.0805,0.0906,0.1046,0.1177,0.1342,0.1467,0.1603,0.1761,0.1892,0.1832,0.1765,0.1357,0.0724,0.0295,-0.0136,-0.012,-0.0278,-0.0274,-0.0271,-0.0248,-0.0233,-0.0308,-0.0308,-0.0309,-0.0309,-0.0309,0,0.0804,0.0875,0.0999,0.1168,0.1315,0.1384,0.1596,0.1716,0.1909,0.201,0.2049,0.1658,0.125,0.0784,0.0144,-0.0249,-0.0276,-0.0369,-0.0316,-0.0311,-0.0307,-0.0285,-0.0355,-0.0356,-0.0358,-0.0359,0,0,0.0842,0.0952,0.1007,0.1244,0.1376,0.1586,0.1714,0.189,0.2006,0.2092,0.2069,0.1962,0.1396,0.0922,0.0389,0.002,-0.0053,-0.0053,0.003,0.0163,0.0171,-0.0206,-0.016,0,0,0,0,0]}],[{"header":{"parameterUnit":"m.s-1","parameterCategory":2,"la1":30.2991,"la2":30.254,"lo1":-89.0895,"lo2":-89.0444,"dy":0.0017,"dx":0.0017,"nx":28,"ny":28,"refTime":"2024-06-08T21:00:00:Z","depth":"4","parameterNumber":2,"parameterNumberName":"U-component_of_CURRENTS"},"data":[0,0,0,0,0,0,0,0,0,0,0,0,0,0,0,0,0,0,0,0,0,0,0,0,0,0,0,0,0,0,0,0,0,0,0,0,0,0,0,0,0,0,0,0,0,0,0,0,0,0,0,0,0,0,0,0,0,0,0.2081,0.2082,0,0.2152,0.2152,0.2153,0.2221,0.2223,0.2224,0.2225,0.2253,0.2253,0.2252,0,0,0,0,0,0,0,0,0,0,0,0,0,0.1972,0.1973,0.208,0.2082,0.2083,0.2151,0.2152,0.2153,0.2221,0.2223,0.2224,0.2226,0.2253,0.2253,0.2252,0,0,0,0,0,0,0,0,0,0,0,0,0,0.2025,0.1974,0.208,0.2128,0.2134,0.2151,0.2152,0.2153,0.2221,0.2223,0.2225,0.2226,0.2253,0.2253,0.2252,0.221,0,0,0.225,0.225,0,0,0,0,0,0,0,0,0.2022,0.2028,0.212,0.2125,0.2131,0.2183,0.2124,0.2171,0.222,0.2183,0.2225,0.2227,0.2227,0.2229,0.2233,0.2212,0.2213,0.225,0.225,0.225,0.2249,0,0,0,0,0,0,0,0.2018,0.2025,0.2104,0.2121,0.2128,0.2136,0.2145,0.2133,0.219,0.2187,0.2193,0.2207,0.2229,0.2233,0.2234,0.2213,0.225,0.225,0.2249,0.2249,0.2291,0.2292,0,0,0,0,0,0,0.2017,0.2022,0.2102,0.2107,0.2084,0.2137,0.2147,0.2161,0.2191,0.2199,0.2205,0.221,0.2233,0.2234,0.2235,0.2301,0.225,0.2249,0.2249,0.2289,0.2291,0.2292,0,0,0,0,0,0,0.2014,0.2023,0.21,0.2069,0.208,0.2137,0.2152,0.2162,0.221,0.2206,0.2213,0.225,0.2235,0.2236,0.2269,0.2298,0.2249,0.2248,0.2287,0.229,0.2292,0.2358,0,0,0,0,0,0,0.2011,0.2022,0.2049,0.2069,0.2082,0.2131,0.2151,0.2162,0.2215,0.2223,0.2245,0.2247,0.2236,0.227,0.2268,0.2296,0.2248,0.2285,0.2288,0.2291,0.2354,0.2363,0.237,0,0,0,0,0,0.2007,0.2026,0.205,0.2061,0.2112,0.2132,0.214,0.2183,0.2216,0.2234,0.2264,0.2249,0.2287,0.2271,0.2268,0.2297,0.2284,0.2287,0.2291,0.2351,0.2361,0.237,0,0,0,0,0,0,0.1994,0.2036,0.2062,0.2096,0.2126,0.2146,0.2176,0.2204,0.2241,0.2266,0.2263,0.2266,0.2307,0.2292,0.2275,0.2318,0.2284,0.2287,0.2331,0.234,0.2348,0.2354,0.2247,0,0,0,0,0,0.2003,0.2031,0.2067,0.2097,0.2118,0.2155,0.2179,0.221,0.2238,0.226,0.2276,0.2295,0.2308,0.2321,0.2324,0.2342,0.2363,0.236,0.2368,0.2375,0.2379,0.247,0.2487,0.2303,0.2303,0.2303,0,0,0.2006,0.2035,0.2053,0.2097,0.2128,0.2142,0.2175,0.2222,0.2248,0.2252,0.2303,0.2322,0.2321,0.235,0.2366,0.2347,0.2436,0.2379,0.2385,0.2386,0.2476,0.2494,0.251,0.2306,0.2305,0.2305,0,0,0.2002,0.2055,0.2071,0.2095,0.215,0.2167,0.2189,0.2235,0.2281,0.2323,0.2341,0.2386,0.2397,0.241,0.2414,0.2464,0.2475,0.2469,0.2511,0.26,0.2616,0.2631,0.267,0.2687,0.2472,0.2472,0.2472,0,0.2009,0.2032,0.2078,0.2093,0.212,0.2179,0.2195,0.2235,0.229,0.2333,0.2352,0.2419,0.2424,0.2462,0.2489,0.2481,0.2526,0.2475,0.2612,0.2627,0.2641,0.2677,0.2696,0.2475,0.2475,0.2475,0.2474,0,0.1997,0.2033,0.2046,0.2082,0.2113,0.2143,0.2198,0.2256,0.2321,0.2361,0.2448,0.2474,0.2524,0.2528,0.2525,0.2618,0.2615,0.2615,0.2591,0.2664,0.2697,0.2715,0.2481,0.2479,0.2478,0.2477,0,0,0.1964,0.2027,0.2035,0.2067,0.2119,0.2146,0.2203,0.2273,0.2347,0.2409,0.2501,0.2536,0.2593,0.2603,0.262,0.2685,0.2817,0.2702,0.2705,0.2744,0.3003,0.2821,0.2823,0.2864,0.2868,0.2871,0.2982,0,0.1946,0.1975,0.201,0.205,0.2073,0.215,0.2204,0.2283,0.2368,0.2471,0.2538,0.2627,0.2609,0.2676,0.2737,0.2816,0.2871,0.2785,0.2923,0.2925,0.2759,0.284,0.2883,0.2995,0.3,0.3003,0.3005,0,0.1912,0.1944,0.198,0.207,0.2094,0.2133,0.2262,0.2327,0.2466,0.2546,0.2642,0.2709,0.2821,0.2809,0.2963,0.2923,0.297,0.3005,0.3011,0.2831,0.2778,0.291,0.3037,0.3035,0.3032,0.303,0.3028,0,0.186,0.1924,0.1964,0.1988,0.2088,0.2154,0.2231,0.236,0.2449,0.2624,0.2714,0.2833,0.2944,0.3027,0.3109,0.3076,0.3268,0.3228,0.3086,0.3073,0.3173,0.3156,0.3329,0.3329,0.3329,0.3329,0.3328,0,0.1808,0.1846,0.1962,0.1986,0.2074,0.2161,0.2283,0.2384,0.254,0.2638,0.2775,0.2866,0.3022,0.3135,0.317,0.3188,0.3327,0.3104,0.3101,0.3194,0.3179,0.3185,0.3167,0.3333,0.3332,0.3331,0.333,0,0.1733,0.18,0.1868,0.2001,0.2052,0.213,0.2304,0.2381,0.2558,0.2696,0.2768,0.2957,0.3104,0.3204,0.3354,0.326,0.3299,0.3262,0.3353,0.3352,0.3019,0.3004,0.3105,0.31,0.3095,0.3091,0.3088,0,0.1687,0.1717,0.1875,0.1921,0.1989,0.2117,0.2191,0.2374,0.2451,0.2713,0.2759,0.2977,0.3075,0.3131,0.3252,0.3298,0.3254,0.3234,0.3106,0.3015,0.3004,0.2994,0.2985,0.3081,0.308,0.3079,0.3078,0,0.1611,0.1697,0.1757,0.1852,0.194,0.2017,0.2146,0.2186,0.2393,0.2584,0.2694,0.2778,0.2929,0.3022,0.3091,0.3109,0.3228,0.3186,0.3193,0.3073,0.2988,0.2979,0.2974,0.3063,0.3065,0.3066,0.3067,0,0.1569,0.1591,0.1685,0.1751,0.1851,0.1871,0.1959,0.205,0.2158,0.2437,0.2475,0.2699,0.2899,0.2927,0.2992,0.3005,0.2942,0.2818,0.2843,0.2861,0.273,0.2582,0.2544,0,0,0,0,0,0.1504,0.1498,0.1562,0.1612,0.1705,0.1752,0.1896,0.1985,0.2191,0.2207,0.2332,0.2458,0.257,0.2695,0.2658,0.2873,0.2941,0.2815,0.2807,0.2978,0.2995,0.2863,0,0,0,0,0,0,0.145,0.1495,0.151,0.148,0.1484,0.1552,0.1629,0.1765,0.1792,0.2026,0.2112,0.23,0.2457,0.2568,0.2609,0.2644,0.2585,0.2965,0.2959,0.2968,0.2984,0.2998,0.2868,0,0,0,0,0]},{"header":{"parameterUnit":"m.s-1","parameterCategory":2,"la1":30.2991,"la2":30.254,"lo1":-89.0895,"lo2":-89.0444,"dy":0.0017,"dx":0.0017,"nx":28,"ny":28,"refTime":"2024-06-08T21:00:00:Z","depth":"4","parameterNumber":3,"parameterNumberName":"V-component_of_CURRENTS"},"data":[0,0,0,0,0,0,0,0,0,0,0,0,0,0,0,0,0,0,0,0,0,0,0,0,0,0,0,0,0,0,0,0,0,0,0,0,0,0,0,0,0,0,0,0,0,0,0,0,0,0,0,0,0,0,0,0,0,0,0.0058,0.0057,0,0.0022,0.0021,0.0021,-0.0014,-0.0014,-0.0015,-0.0015,-0.0081,-0.0082,-0.0083,0,0,0,0,0,0,0,0,0,0,0,0,0,0.0054,0.0054,0.0058,0.0057,0.0057,0.0022,0.0021,0.002,-0.0014,-0.0014,-0.0015,-0.0015,-0.008,-0.0082,-0.0083,0,0,0,0,0,0,0,0,0,0,0,0,0,0.004,0.0054,0.0058,0.0036,0.0034,0.0022,0.0021,0.002,-0.0014,-0.0014,-0.0015,-0.0015,-0.0079,-0.0082,-0.0084,-0.0087,0,0,-0.009,-0.0091,0,0,0,0,0,0,0,0,0.004,0.004,0.004,0.0038,0.0035,0.0009,-0.0004,-0.0017,-0.0014,0.0003,-0.0015,-0.0015,-0.0052,-0.0057,-0.0063,-0.009,-0.0093,-0.009,-0.0092,-0.0093,-0.0093,0,0,0,0,0,0,0,0.0042,0.0041,0.0042,0.004,0.0037,0.0014,0.0012,-0.0007,-0.0023,0.0002,-0.0,-0.0003,-0.0054,-0.0061,-0.0065,-0.0094,-0.009,-0.0092,-0.0094,-0.0094,-0.0105,-0.0104,0,0,0,0,0,0,0.0051,0.0042,0.0044,0.0041,0.0038,0.0015,0.0012,0.0017,-0.0022,-0.0028,-0.0002,-0.0004,-0.0057,-0.0063,-0.0068,-0.0049,-0.0093,-0.0095,-0.0096,-0.0106,-0.0104,-0.0103,0,0,0,0,0,0,0.0051,0.0052,0.0045,0.0041,0.0039,0.0016,0.0021,0.0017,0.0012,-0.0024,-0.0031,-0.0001,-0.0058,-0.0065,-0.0075,-0.0053,-0.0096,-0.0098,-0.0107,-0.0105,-0.0104,-0.0027,0,0,0,0,0,0,0.0052,0.0052,0.0057,0.0042,0.0039,0.0049,0.0022,0.0016,0.0012,0.0009,-0.0026,-0.0033,-0.0059,-0.0071,-0.0077,-0.0056,-0.0099,-0.0108,-0.0106,-0.0104,-0.0031,-0.0023,-0.0016,0,0,0,0,0,0.0052,0.0068,0.0058,0.0058,0.0048,0.005,0.0047,0.0027,0.0012,0.0019,-0.0005,-0.0032,-0.0063,-0.0072,-0.0079,-0.0059,-0.0109,-0.0107,-0.0104,-0.0034,-0.0024,-0.0016,0,0,0,0,0,0,0.0069,0.0066,0.0054,0.0068,0.0062,0.0045,0.0048,0.0033,0.0019,0.0016,-0.0022,-0.003,-0.003,-0.0054,-0.0064,-0.0055,-0.0089,-0.0088,-0.0033,-0.0024,-0.0017,0.0002,-0.0101,0,0,0,0,0,0.0075,0.0086,0.0077,0.0087,0.0088,0.0068,0.0065,0.0054,0.004,0.0033,0.001,-0.0012,-0.0026,-0.0033,-0.0051,-0.0048,-0.0092,-0.0038,-0.003,-0.0024,-0.0013,-0.0065,-0.0062,-0.0096,-0.0096,-0.0096,0,0,0.0085,0.0083,0.0089,0.0091,0.0084,0.0102,0.0065,0.0071,0.0088,0.0029,0.0043,0.0011,-0.002,-0.0015,-0.0017,-0.0032,-0.0039,-0.0021,-0.0015,-0.0007,-0.0062,-0.0059,-0.0057,-0.0094,-0.0095,-0.0095,0,0,0.0118,0.011,0.0134,0.0136,0.0134,0.0127,0.0133,0.0122,0.012,0.0127,0.009,0.0073,0.0055,0.0038,0.0026,0.0063,-0.0,0.0057,0.0111,0.006,0.0062,0.0063,0.0004,-0.0,0.0063,0.0063,0.0063,0,0.0127,0.0159,0.014,0.0166,0.0179,0.0145,0.018,0.0175,0.0163,0.0164,0.0145,0.0115,0.0084,0.0088,0.0101,0.0081,0.0034,0.008,0.0068,0.0069,0.0069,0.0008,0.0002,0.0067,0.0066,0.0066,0.0066,0,0.0183,0.0206,0.0223,0.0246,0.0257,0.0279,0.0276,0.0284,0.0273,0.0256,0.0256,0.0214,0.0194,0.0183,0.0153,0.0147,0.0107,0.008,0.0046,0.0077,0.0011,0.0003,0.0073,0.0071,0.007,0.0069,0,0,0.0212,0.0255,0.0261,0.0291,0.0304,0.0322,0.0356,0.0372,0.0388,0.0365,0.0381,0.0351,0.0308,0.0293,0.025,0.021,0.0163,0.0151,0.0146,0.0092,0.0037,0.0029,0.0019,0.0127,0.0126,0.0125,-0.0012,0,0.0263,0.0332,0.034,0.0408,0.0447,0.0439,0.0475,0.048,0.0466,0.0466,0.0418,0.041,0.0357,0.0346,0.0298,0.0198,0.0148,0.0202,0.0016,0.0011,-0.0001,0.0012,0.0123,-0.0018,-0.002,-0.0021,-0.0022,0,0.0318,0.036,0.044,0.0501,0.0518,0.0551,0.0595,0.0624,0.0607,0.0594,0.0564,0.0508,0.0459,0.0406,0.0255,0.0287,0.0174,0.009,0.0082,0.0045,-0.0011,-0.0055,-0.0037,-0.0036,-0.0035,-0.0034,-0.0033,0,0.0356,0.043,0.0499,0.052,0.0581,0.0619,0.0652,0.0659,0.0691,0.0669,0.0669,0.0588,0.0553,0.0414,0.0243,0.024,0.006,0.003,-0.0085,-0.0089,-0.0076,-0.0076,-0.0082,-0.0082,-0.0081,-0.0081,-0.0081,0,0.0407,0.0462,0.0524,0.0563,0.065,0.0674,0.0748,0.0763,0.0782,0.0813,0.0735,0.0728,0.0551,0.0425,0.0261,0.0068,0.0067,-0.0072,-0.0119,-0.0042,-0.0036,-0.0083,-0.0081,-0.0086,-0.0085,-0.0084,-0.0083,0,0.0433,0.0475,0.0557,0.0637,0.0672,0.0732,0.0824,0.0867,0.0879,0.0917,0.0916,0.0822,0.066,0.0466,0.023,0.01,-0.0089,-0.0163,-0.0066,-0.0106,-0.0212,-0.0205,-0.03,-0.0301,-0.0302,-0.0303,-0.0304,0,0.0451,0.0498,0.0607,0.0663,0.0703,0.0796,0.0864,0.0915,0.0961,0.0971,0.0989,0.0858,0.0765,0.0438,0.0221,-0.0088,-0.0134,-0.0236,-0.0217,-0.0195,-0.0232,-0.0223,-0.0214,-0.0306,-0.0306,-0.0306,-0.0307,0,0.0481,0.0517,0.0582,0.0701,0.0784,0.0887,0.0983,0.1022,0.1077,0.1085,0.1047,0.0886,0.07,0.0445,0.0203,-0.002,-0.0166,-0.0249,-0.0248,-0.0231,-0.0204,-0.0237,-0.0227,-0.0311,-0.031,-0.031,-0.0309,0,0.0496,0.0538,0.0626,0.0731,0.0843,0.095,0.0997,0.1058,0.111,0.1119,0.1097,0.0907,0.0799,0.0477,0.0255,0.0039,-0.002,-0.0089,-0.0098,-0.0097,0.0005,0.0072,0.0015,0,0,0,0,0,0.0512,0.0565,0.0654,0.0776,0.0888,0.0963,0.1071,0.1107,0.1152,0.1139,0.1127,0.0957,0.0642,0.0507,0.0289,0.0209,-0.0075,-0.0056,-0.0164,-0.0332,-0.0327,-0.0243,0,0,0,0,0,0,0.0523,0.0603,0.0649,0.0798,0.0888,0.1021,0.1092,0.1122,0.1119,0.1126,0.0965,0.0901,0.0593,0.0771,0.0287,0.0221,0.0121,-0.0197,-0.0202,-0.0334,-0.033,-0.0327,-0.0238,0,0,0,0,0]}]]